| time (UTC) | temp F | wind direction | speed MPH | gust MPH | rain 1hr in | rain 24hr in | rain mn in | humidity % | barometer mb |
| 20260506043002 | 40 | 349 | 4.0 | 12.0 | 0.06 | 0.07 | 0.07 | 91 | 1011.1 |
| 20260506041503 | 40 | 341 | 2.0 | 6.0 | 0.06 | 0.07 | 0.07 | 91 | 1011.3 |
| 20260506040006 | 40 | 320 | 4.0 | 10.0 | 0.05 | 0.06 | 0.06 | 90 | 1010.7 |
| 20260506033001 | 43 | 334 | 6.0 | 14.0 | 0.00 | 0.01 | 0.01 | 80 | 1010.6 |
| 20260506030005 | 44 | 1 | 6.0 | 12.0 | 0.00 | 0.01 | 0.01 | 76 | 1010.3 |
| 20260506023002 | 47 | 328 | 3.0 | 11.0 | 0.00 | 0.01 | 0.01 | 71 | 1009.7 |
| 20260506014504 | 47 | 292 | 0.0 | 3.0 | 0.00 | 0.01 | 0.01 | 67 | 1008.8 |
| 20260506013003 | 48 | 320 | 2.0 | 4.0 | 0.00 | 0.01 | 0.01 | 67 | 1008.3 |
| 20260506011502 | 49 | 326 | 7.0 | 16.0 | 0.00 | 0.01 | 0.01 | 64 | 1008.5 |
| 20260506010005 | 50 | 284 | 8.0 | 14.0 | 0.00 | 0.01 | 0.01 | 57 | 1008.7 |
| 20260506004503 | 51 | 290 | 5.0 | 10.0 | 0.00 | 0.01 | 0.01 | 56 | 1008.3 |
| 20260506003002 | 52 | 281 | 5.0 | 12.0 | 0.00 | 0.01 | 0.01 | 55 | 1008.3 |
| 20260506001501 | 53 | 271 | 5.0 | 11.0 | 0.00 | 0.01 | 0.01 | 54 | 1008.3 |
| 20260506000004 | 55 | 249 | 6.0 | 13.0 | 0.00 | 0.01 | 0.01 | 52 | 1008.2 |
| 20260505231502 | 56 | 315 | 5.0 | 11.0 | 0.00 | 0.01 | 0.01 | 52 | 1008.1 |
| 20260505230004 | 56 | 160 | 2.0 | 5.0 | 0.00 | 0.01 | 0.01 | 58 | 1008.2 |
| 20260505224500 | 52 | 307 | 4.0 | 8.0 | 0.00 | 0.01 | 0.01 | 64 | 1008.4 |
| 20260505223002 | 49 | 283 | 4.0 | 8.0 | 0.00 | 0.01 | 0.01 | 76 | 1008.8 |
| 20260505221500 | 49 | 292 | 10.0 | 22.0 | 0.00 | 0.01 | 0.01 | 69 | 1008.9 |
| 20260505220005 | 52 | 283 | 8.0 | 20.0 | 0.00 | 0.01 | 0.01 | 62 | 1008.9 |
| 20260505214502 | 56 | 320 | 6.0 | 16.0 | 0.00 | 0.01 | 0.01 | 56 | 1008.8 |
| 20260505213002 | 59 | 323 | 4.0 | 11.0 | 0.00 | 0.01 | 0.01 | 55 | 1009.0 |
| 20260505211501 | 54 | 327 | 2.0 | 6.0 | 0.00 | 0.01 | 0.01 | 60 | 1009.2 |
| 20260505210005 | 53 | 315 | 2.0 | 8.0 | 0.00 | 0.01 | 0.01 | 62 | 1009.1 |
| 20260505204501 | 52 | 194 | 3.0 | 10.0 | 0.00 | 0.01 | 0.01 | 63 | 1009.4 |
| 20260505201502 | 54 | 323 | 6.0 | 18.0 | 0.00 | 0.01 | 0.01 | 61 | 1009.6 |
| 20260505200004 | 54 | 266 | 7.0 | 13.0 | 0.01 | 0.01 | 0.01 | 62 | 1009.6 |
| 20260505194501 | 53 | 257 | 5.0 | 15.0 | 0.01 | 0.01 | 0.01 | 68 | 1009.7 |
| 20260505191502 | 49 | 295 | 3.0 | 9.0 | 0.01 | 0.01 | 0.01 | 87 | 1009.9 |
| 20260505184500 | 55 | 321 | 6.0 | 15.0 | 0.00 | 0.00 | 0.00 | 55 | 1009.9 |
| 20260505183001 | 56 | 226 | 6.0 | 13.0 | 0.00 | 0.00 | 0.00 | 55 | 1009.6 |
| 20260505181502 | 57 | 248 | 5.0 | 13.0 | 0.00 | 0.00 | 0.00 | 54 | 1009.7 |
| 20260505180006 | 55 | 232 | 3.0 | 7.0 | 0.00 | 0.00 | 0.00 | 56 | 1009.6 |
| 20260505174500 | 55 | 291 | 3.0 | 8.0 | 0.00 | 0.00 | 0.00 | 54 | 1010.0 |
| 20260505173001 | 54 | 303 | 3.0 | 7.0 | 0.00 | 0.00 | 0.00 | 56 | 1009.8 |
| 20260505171502 | 53 | 307 | 3.0 | 7.0 | 0.00 | 0.00 | 0.00 | 57 | 1010.3 |
| 20260505170004 | 53 | 302 | 1.0 | 4.0 | 0.00 | 0.00 | 0.00 | 56 | 1010.2 |
| 20260505164501 | 51 | 329 | 3.0 | 8.0 | 0.00 | 0.00 | 0.00 | 59 | 1010.2 |
| 20260505163001 | 49 | 328 | 4.0 | 6.0 | 0.00 | 0.00 | 0.00 | 64 | 1010.3 |
| 20260505161502 | 49 | 313 | 4.0 | 8.0 | 0.00 | 0.00 | 0.00 | 62 | 1010.6 |
| 20260505153001 | 48 | 317 | 5.0 | 10.0 | 0.00 | 0.00 | 0.00 | 63 | 1010.7 |
| 20260505124501 | 49 | 325 | 5.0 | 11.0 | 0.00 | 0.00 | 0.00 | 52 | 1010.2 |
| 20260505123001 | 49 | 330 | 5.0 | 10.0 | 0.00 | 0.00 | 0.00 | 50 | 1010.3 |
| 20260505121502 | 49 | 275 | 4.0 | 7.0 | 0.00 | 0.00 | 0.00 | 49 | 1010.4 |
| 20260505120005 | 49 | 315 | 4.0 | 8.0 | 0.00 | 0.00 | 0.00 | 48 | 1010.3 |
| 20260505114501 | 50 | 314 | 5.0 | 9.0 | 0.00 | 0.00 | 0.00 | 46 | 1009.9 |
| 20260505113001 | 50 | 265 | 4.0 | 9.0 | 0.00 | 0.00 | 0.00 | 44 | 1010.0 |
| 20260505101503 | 51 | 338 | 4.0 | 11.0 | 0.00 | 0.00 | 0.00 | 40 | 1010.1 |
| 20260505094500 | 52 | 338 | 5.0 | 11.0 | 0.00 | 0.00 | 0.00 | 31 | 1009.6 |
| 20260505093001 | 51 | 344 | 6.0 | 11.0 | 0.00 | 0.00 | 0.00 | 36 | 1009.8 |
| 20260505091501 | 52 | 330 | 5.0 | 11.0 | 0.00 | 0.00 | 0.00 | 39 | 1009.8 |
| 20260505090004 | 53 | 326 | 7.0 | 17.0 | 0.00 | 0.00 | 0.00 | 41 | 1010.2 |
| 20260505084502 | 53 | 322 | 4.0 | 10.0 | 0.00 | 0.00 | 0.00 | 41 | 1010.4 |
| 20260505083000 | 53 | 13 | 2.0 | 7.0 | 0.00 | 0.00 | 0.00 | 41 | 1010.4 |
| 20260505081503 | 54 | 306 | 2.0 | 8.0 | 0.00 | 0.00 | 0.00 | 40 | 1010.9 |
| 20260505080005 | 54 | 324 | 3.0 | 6.0 | 0.00 | 0.00 | 0.00 | 39 | 1011.1 |
| 20260505074502 | 54 | 339 | 4.0 | 12.0 | 0.00 | 0.00 | 0.00 | 38 | 1011.0 |
| 20260505071500 | 55 | 279 | 5.0 | 15.0 | 0.00 | 0.00 | 0.00 | 36 | 1011.0 |
| 20260505070005 | 55 | 306 | 2.0 | 5.0 | 0.00 | 0.00 | 0.00 | 36 | 1010.9 |
| 20260505064502 | 55 | 359 | 4.0 | 8.0 | 0.00 | 0.00 | 0.00 | 35 | 1010.9 |
| 20260505063002 | 55 | 30 | 3.0 | 8.0 | 0.00 | 0.00 | 0.00 | 35 | 1011.1 |
| 20260505060006 | 56 | 307 | 2.0 | 6.0 | 0.00 | 0.00 | 0.00 | 34 | 1011.1 |
| 20260505054504 | 57 | 325 | 4.0 | 9.0 | 0.00 | 0.00 | 0.00 | 33 | 1011.1 |
| 20260505053002 | 57 | 331 | 3.0 | 10.0 | 0.00 | 0.00 | 0.00 | 32 | 1010.8 |
| 20260505051502 | 57 | 314 | 4.0 | 11.0 | 0.00 | 0.00 | 0.00 | 32 | 1010.6 |